TimeMDT,TemperatureF,Dew PointF,Humidity,Sea Level PressureIn,VisibilityMPH,Wind Direction,Wind SpeedMPH,Gust SpeedMPH,PrecipitationIn,Events,Conditions,WindDirDegrees,DateUTC
12:55 AM,35.1,27.0,72,30.16,10.0,NNW,27.6,33.4,N/A,,Clear,340,2012-10-04 06:55:00
1:55 AM,33.1,25.0,72,30.20,10.0,NNW,15.0,23.0,N/A,,Clear,340,2012-10-04 07:55:00
2:55 AM,32.0,26.1,79,30.19,10.0,NNW,17.3,-,N/A,,Clear,340,2012-10-04 08:55:00
3:55 AM,30.9,26.1,82,30.22,10.0,NNW,13.8,-,N/A,,Clear,330,2012-10-04 09:55:00
4:55 AM,30.0,25.0,82,30.21,10.0,NNW,10.4,-,N/A,,Clear,330,2012-10-04 10:55:00
5:55 AM,28.9,25.0,85,30.23,10.0,NW,9.2,-,N/A,,Clear,320,2012-10-04 11:55:00
6:55 AM,28.0,24.1,85,30.32,10.0,NW,6.9,-,N/A,,Clear,310,2012-10-04 12:55:00
7:55 AM,33.1,26.1,75,30.33,10.0,NW,8.1,-,N/A,,Clear,320,2012-10-04 13:55:00
8:55 AM,36.0,25.0,64,30.34,10.0,North,10.4,-,N/A,,Clear,10,2012-10-04 14:55:00
9:55 AM,37.9,24.1,57,30.35,10.0,North,8.1,-,N/A,,Clear,10,2012-10-04 15:55:00
10:55 AM,42.1,24.1,49,30.32,10.0,Variable,5.8,-,N/A,,Clear,0,2012-10-04 16:55:00
11:55 AM,45.0,21.9,40,30.31,10.0,Variable,4.6,-,N/A,,Clear,0,2012-10-04 17:55:00
12:55 PM,46.9,21.9,37,30.27,10.0,Variable,4.6,-,N/A,,Clear,0,2012-10-04 18:55:00
1:55 PM,48.9,23.0,36,30.24,10.0,SSE,5.8,-,N/A,,Clear,160,2012-10-04 19:55:00
2:55 PM,50.0,23.0,35,30.22,10.0,East,4.6,-,N/A,,Clear,80,2012-10-04 20:55:00
3:55 PM,51.1,23.0,33,30.21,10.0,SSE,10.4,17.3,N/A,,Clear,150,2012-10-04 21:55:00
4:55 PM,51.1,23.0,33,30.21,10.0,SE,6.9,-,N/A,,Clear,130,2012-10-04 22:55:00
5:55 PM,48.9,23.0,36,30.22,10.0,SE,10.4,-,N/A,,Partly Cloudy,140,2012-10-04 23:55:00
6:55 PM,45.0,24.1,44,30.25,10.0,ESE,11.5,-,N/A,,Clear,110,2012-10-05 00:55:00
7:55 PM,41.0,24.1,51,30.26,10.0,East,9.2,-,N/A,,Clear,100,2012-10-05 01:55:00
8:55 PM,37.9,25.0,60,30.25,10.0,ESE,8.1,-,N/A,,Clear,110,2012-10-05 02:55:00
9:55 PM,37.0,25.0,62,30.25,10.0,SE,9.2,-,N/A,,Clear,130,2012-10-05 03:55:00
10:55 PM,34.0,24.1,67,30.25,10.0,SE,8.1,-,N/A,,Clear,140,2012-10-05 04:55:00
11:55 PM,35.1,24.1,64,30.23,10.0,SE,6.9,-,N/A,,Clear,140,2012-10-05 05:55:00